861  
NZUS01 KABQ 231001  
RWRABQ  
NEW MEXICO REGIONAL WEATHER ROUNDUP  
NATIONAL WEATHER SERVICE ALBUQUERQUE NM  
400 AM MDT SAT JUN 23 2018  
 
-----NORTHERN NEW MEXICO AND NEARBY AREAS-----  
 
 
CITY SKY/WX TMP DP RH WIND PRES REMARKS
 
ALBUQUERQUE FAIR 70 21 15 SE5 29.96R  
BELEN NOT AVBL  
SOCORRO FAIR 79 20 11 S3 29.93R  
 
CITY SKY/WX TMP DP RH WIND PRES REMARKS
 
SANTA FE CLEAR 66 10 11 E3 30.01R  
LOS ALAMOS CLEAR 71 11 9 NW10 30.08S  
TAOS PTCLDY 52 15 23 NE5 30.11R  
ANGEL FIRE FAIR 40 26 57 SE3 30.20R  
FARMINGTON CLEAR 58 17 20 CALM 29.98R  
GRANTS PTCLDY 51 13 22 NW3 30.11R  
GALLUP PTCLDY 47 17 30 E3 30.09S  
FLAGSTAFF CLEAR 48 21 34 CALM 30.14F  
DURANGO PTCLDY 54 21 27 CALM 30.05S  
 
CITY SKY/WX TMP DP RH WIND PRES REMARKS
 
ALAMOSA MOCLDY 50 22 33 CALM 30.12S  
DENVER CLEAR 60 48 64 W8 30.00F  
CLAYTON CLEAR 56 53 90 N7 29.96R  
RATON MOCLDY 58 51 78 NE3 30.03F  
LAS VEGAS PTCLDY 53 48 83 N9 30.08S  
CLINES CORNERS PTCLDY 57 38 48 E7 30.08R  
SANTA ROSA FAIR 65 52 63 N21 29.90R  
TUCUMCARI CLEAR 64 55 72 N10 29.85R  
CLOVIS (AFB) NOT AVBL  
CLOVIS CLEAR 61 56 83 N12 29.86R  
AMARILLO CLEAR 63 59 87 SE20 29.85S  
 
-----SOUTHERN NEW MEXICO AND NEARBY AREAS-----  
 
 
CITY SKY/WX TMP DP RH WIND PRES REMARKS
 
T OR C CLEAR 77 19 11 NW6 29.91S  
DEMING CLEAR 72 22 15 SW6 29.91S  
TUCSON CLEAR 78 41 26 S6 29.85R  
EL PASO CLEAR 85 13 7 E8 29.83R  
LAS CRUCES CLEAR 72 19 13 W15 29.88S  
 
CITY SKY/WX TMP DP RH WIND PRES REMARKS
 
ALAMOGORDO NOT AVBL  
RUIDOSO CLEAR 68 12 11 W10 30.06F  
ROSWELL CLEAR 71 53 52 VRB3 29.75R  
CARLSBAD CLEAR 74 55 51 S13 29.71F  
HOBBS CLEAR 75 61 60 S18G24 29.76F  
 
CLICK HERE TO GO TO PREVIOUS BULLETINS.

The Nexlab NM Page Main Text Page